Regional Weather Roundup
Issued by NWS Mobile, AL

Home | Current Version | Previous Version | Text Only | Print | Product List | Glossary On
Versions: 1 2 3 4 5 6 7 8 9 10 11 12 13 14 15 16 17 18 19 20 21 22 23 24 25 26 27 28 29 30 31 32 33 34 35 36 37 38 39 40 41 42 43 44 45 46 47 48 49 50
000
ASUS44 KMOB 040316
RWRMOB
REGIONAL WEATHER ROUNDUP
NATIONAL WEATHER SERVICE MOBILE AL
1000 PM CDT FRI JUL 03 2015

ALZ061>064-040400-
COASTAL ALABAMA


CITY           SKY/WX    TMP DP  RH WIND       PRES   REMARKS
MOBILE REG APT PTCLDY    80  77  90 S8        30.04R
BROOKLEY FIELD PTCLDY    81  76  84 VRB3      30.04R
GULF SHORES    PTCLDY    81  76  84 S7        30.02S

$$

ALZ051>060-040400-
INTERIOR SOUTHWEST AND SOUTH CENTRAL ALABAMA


CITY           SKY/WX    TMP DP  RH WIND       PRES   REMARKS
ANDALUSIA/OPP  PTCLDY    82  74  76 S3        30.04R
EVERGREEN      MOCLDY    81  74  79 S6        30.03R
FLORALA        CLEAR     78  73  84 S8        30.06R
GREENVILLE     FAIR      79  74  84 S5        30.02R

$$

FLZ001>006-040400-
WESTERN FLORIDA PANHANDLE


CITY           SKY/WX    TMP DP  RH WIND       PRES   REMARKS
CRESTVIEW      PTCLDY    79  76  90 S5        30.05R
DESTIN         CLEAR     84  77  79 VRB5      30.04R
DUKE FIELD     FAIR      80  75  86 S7        30.03R
MARY ESTHER    PTCLDY    82  76  82 S8        30.03R
MILTON         PTCLDY    81  76  84 S5        30.04R
PENSACOLA      PTCLDY    82  76  81 S12       30.03R
NAS PENSACOLA  PTCLDY    81  76  84 S9        30.02R
VALPARAISO     MOCLDY    82  76  81 SW6       30.04R

$$

...MARINE OBSERVATIONS...

STATION/POSITION TIME  SKY/WX   TEMP    WIND        PRES    VSBY
                                AIR SEA DIR/SP/G
                 (UTC)          (F)     (DEG/KT/KT) (MB)    (MI)
PASCAGOULA       0200            84     200/  9/ 14 1016.0R
PETIT BOIS ISL   0200            85     200/ 13/ 16 1016.5R
E DAUPHIN ISLAND 0300            84     200/  6/  8 1016.6R
MIDDLE BAY LIGHT 0200            83     200/ 17     1016.3S
USCG MOBILE BAY  0200            82 83  200/  5/  8 1015.2R
STATE DOCKS      0200            84 86              1016.0R
MEAHER PARK      0300            85     190/ 13     1016.3R
FORT MORGAN      0200            84     210/ 14/ 16 1015.9S
12 S ORANGE BCH  0250            84 83  200/ 10/ 12 1016.0
WVE H/P(F/S)=  2/ 5

PENSACOLA BAY    0200            84 85  210/  5/  8 1016.8R
64 S DAUPHIN ISL 0250            84 85  200/ 10/ 14 1017.6R
WVE H/P(F/S)=  2/ 5

67 S FORT MORGAN 0230            83     200/  8     1017.3R
115 SE PENSACOLA 0250            84 85  180/  6/  8 1018.7R
WVE H/P(F/S)=  2/ 6

MID GULF/42001   0250            84 85  100/ 10/ 12 1017.7R
WVE H/P(F/S)=  2/ 8

EAST GULF/42003  0250            85 86   90/ 12/ 14 1018.1R
WVE H/P(F/S)=  2/ 7


$$

...NEARBY LOCATIONS

CITY           SKY/WX    TMP DP  RH WIND       PRES   REMARKS
GULFPORT       PTCLDY    84  75  74 VRB7      30.01R
BILOXI         PTCLDY    83  77  80 SW13      30.01R
PASCAGOULA     PTCLDY    83  76  79 S7        30.02R
HATTIESBURG    PTCLDY    80  75  84 S3        30.01R
LAUREL         PTCLDY    79 N/A N/A S7        30.01S
MERIDIAN       CLOUDY    80  75  84 CALM      30.00R
MERIDIAN NAS   CLOUDY    74  68  81 NW9       30.02R THUNDER
MONTGOMERY     CLOUDY    73  67  81 CALM      30.01R
MAXWELL AFB    CLOUDY    74  69  82 NE3       30.01R
TROY           MOCLDY    80  73  79 S7        30.04R
FORT RUCKER    PTCLDY    76  68  76 S5        30.03R
DALEVILLE      PTCLDY    76  71  85 S5        30.04R
DOTHAN           N/A    N/A N/A N/A MISG        N/A

$$

...OTHER SURROUNDING LOCATIONS...

CITY           SKY/WX    TMP DP  RH WIND       PRES   REMARKS
BIRMINGHAM     CLOUDY    74  69  85 SE5       30.03R
TUSCALOOSA     TSTM      75  73  93 S5        30.01R
COLUMBUS GA    TSTM      70  64  83 W13G44    30.07R VSB 1
PANAMA CITY    NOT AVBL
TALLAHASSEE    PTCLDY    82  72  71 CALM      30.07R
BATON ROUGE    PTCLDY    83  75  77 S9        30.00R
NEW ORLEANS    MOCLDY    81  73  76 S8        30.01R
SLIDELL        CLOUDY    85  75  72 S8        30.00R
JACKSON        CLOUDY    79  70  74 E3        29.98R
MCCOMB         HAZE      80  75  84 S5        30.00R VSB 1/2

$$

...SURROUNDING MARINE OBSERVATIONS...

STATION/POSITION TIME  SKY/WX   TEMP    WIND        PRES    VSBY
                                AIR SEA DIR/SP/G
                 (UTC)          (F)     (DEG/KT/KT) (MB)    (MI)
WAVELAND         0200            85 86  210/  9/ 14 1016.0R
PASCAGOULA RGN A 0200            85     210/ 10/ 13 1015.7R
PASCAGOULA PORT  0200               87                N/A
GRAND ISLE       0200            84 87  210/  5/  8 1016.5S
SOUTHWEST PASS   0300            83     190/ 11/ 11 1017.4R
PILOT STATION E  0200            83 83  200/  6/  7 1017.0R
SHELL BEACH      0200            83 84  190/  9/ 12 1015.5R
PANAMA CITY      0200            83 86  190/  6/  8 1016.9R
APALACHICOLA     0200            82 85  240/  5/  8 1018.0R
TYNDALL TOWER C  0300            83     200/  7/  8 1018.7R
S APLCHCLA/42036 0250            85 87   CALM  /  2 1019.2R
WVE H/P(F/S)=  2/ 7


$$



USA.gov is the U.S. government's official web portal to all federal, state and local government web resources and services.